Hauptseite
METAR-TAF:

METAR-TAF

Flughäfen :

Flugplatz Melun-Villaroche

Melun, Frankreich

Breite: 48-37N, Länge: 002-41E, Höhe: 95 m

Beobachtung

Neuester Wetterbericht von vor 29 Minuten, um 22:30 UTC
Wind 4 kt aus Nord/Nordost, variierte zwischen Nord/Nordwest und Ost/Nordost
Temperatur 5°C
Luftfeuchtigkeit 100%
Luftdruck 1025 hPa
Sichtweite: 4200 m
Geschlossene Wolkendecke in der Höhe von 1200 ft
feuchter Dunst

METAR: LFPM 162230Z AUTO 02004KT 340V070 4200 BR OVC012 05/05 Q1025

Zeit: 23:59 (22:59 UTC)


TAF: fehlend

Wetterbeobachtungen und Prognosen von mehr als 4000 Flughäfen (METAR und TAF Bericht).

Die verfügbaren Stationen werden durch gelbe und rote Markierungen auf der Karte dargestellt.

Führen Sie die Maus auf sie, um den Namen der Station zu sehen.

Darauf klicken, um die Beobachtung von Wetterbeobachtungen und Prognosen zu sehen.

Um die Karte zu ändern : klicken Sie auf den grünen Tasten mit einem schwarzen Kreuz Zum Vergrößern, auf den grünen Button mit einem Gedankenstrich zu verkleinern, oder auf die grünen Pfeile für benachbarte Karten.


METAR-TAF: